Location: Pabrico
(37.5827°N, 122.0063°W)
Time: 11:27:38
(UTC+00:00)

Cosmos 1553 Rocket - Pass Details

Date: 13 April 2024
Orbit: 940 x 1008 km, 82.9° (Epoch: 23 May)

Event Time Altitude Azimuth Distance (km) Brightness Sun altitude
Rises 12:07:28 0° 352° (N) 3,706 7.3 -17.2°
Reaches altitude 10° 12:10:00 10° 351° (N) 2,744 6.6 -16.7°
Maximum altitude 12:16:18 80° 265° (W) 988 3.9 -15.6°
Drops below altitude 10° 12:22:26 10° 180° (S) 2,680 6.1 -14.5°
Sets 12:24:53 0° 179° (S) 3,614 6.8 -14.0°
